Hourly Weather Roundup
Issued by NWS Central Illinois

Home | Current Version | Previous Version | Text Only | Print | Product List | Glossary On
Versions: 1 2 3 4 5 6 7 8 9 10 11 12 13 14 15 16 17 18 19 20 21 22 23 24 25 26 27 28 29 30 31 32 33 34 35 36 37 38 39 40 41 42 43 44 45 46 47 48 49 50
000
NZUS43 KILX 312110
HWRILX

AREA WEATHER ROUNDUP
NATIONAL WEATHER SERVICE, LINCOLN IL
400 PM CDT TUE MAR 31 2015


CITY           SKY/WX    TMP DP  RH WIND       PRES   REMARKS
BLOOMINGTON    MOSUNNY   65  35  32 NW15      29.94F
CHAMPAIGN      MOSUNNY   66  35  31 N15G23    29.93F
DECATUR        SUNNY     69  35  28 N16G23    29.94S
EFFINGHAM      SUNNY     68  30  24 NW15      29.95S
FLORA          SUNNY     69  33  26 NW13G21   29.93F
GALESBURG      SUNNY     69  34  27 NW14      29.92F
JACKSONVILLE   SUNNY     73  34  23 NW14G21   29.93F
LACON          SUNNY     66  34  30 NW9       29.93S
LAWRENCEVILLE  SUNNY     69  36  29 N18G24    29.92S
LITCHFIELD     SUNNY     69  33  27 N13G18    29.94F
$$


CITY           SKY/WX    TMP DP  RH WIND       PRES   REMARKS
LINCOLN        SUNNY     69  33  26 NW9       29.92F
MACOMB         SUNNY     71  33  24 NW16G24   29.95F
MATTOON        SUNNY     66  35  31 NW14G22   29.92F
MT CARMEL AP   SUNNY     70  32  24 N15       29.91S
OLNEY-NOBLE AP SUNNY     68  37  32 N12G21    29.93S
PARIS          MOSUNNY   64  38  37 N14G21    29.93S
PEORIA         SUNNY     69  32  25 W12       29.93F
PONTIAC        MOSUNNY   63  39  40 NW12G22   29.95S
RANTOUL        MOSUNNY   64  35  34 NW15      29.94S
ROBINSON       SUNNY     66  34  30 NW15G24   29.93S
SPRINGFIELD    SUNNY     71  34  25 NW12G22   29.93F
TAYLORVILLE    SUNNY     68  36  30 NW9G20    29.94F
$$

...REGIONAL REPORTS...


CITY           SKY/WX    TMP DP  RH WIND       PRES   REMARKS
CHICAGO O`HARE MOSUNNY   55  35  47 SW8       29.92F
KANKAKEE       MOSUNNY   57  40  52 NW10G20   29.95S
MOLINE         SUNNY     69  29  22 NW15      29.91F
MOUNT VERNON   SUNNY     72  32  23 N8        29.93F
PITTSFIELD     SUNNY     72  33  24 NW10G16   29.95F
QUINCY         SUNNY     72  30  21 N13       29.94F
ROCKFORD       PTSUNNY   61  36  39 W12       29.93F
$$


CITY           SKY/WX    TMP DP  RH WIND       PRES   REMARKS
BURLINGTON     SUNNY     71  30  21 N14G26    29.92F
CEDAR RAPIDS   SUNNY     69  28  21 NW20G25   29.92F
DES MOINES     MOSUNNY   76  29  17 NW14      29.93F
KIRKSVILLE     SUNNY     74  33  22 N7        29.95F
OTTUMWA        SUNNY     73  30  20 NW13G23   29.93F
ST LOUIS       MOSUNNY   76  34  21 W7        29.93F
$$


CITY           SKY/WX    TMP DP  RH WIND       PRES   REMARKS
TERRE HAUTE    SUNNY     64  38  38 NW12G28   29.92S
EVANSVILLE     SUNNY     72  32  23 NW12G22   29.91S
INDIANAPOLIS   MOSUNNY   61  38  42 NW16G28   29.91R
LAFAYETTE      MOSUNNY   57  38  48 N13G20    29.94S
MADISON        PTSUNNY   58  34  40 VRB6      29.89F
MILWAUKEE      MOSUNNY   50  32  50 SE13      29.91F
$$





USA.gov is the U.S. government's official web portal to all federal, state and local government web resources and services.